STARLINK-1788, 46689

Orbit data source: Space-Track

STARLINK-1788, 46689 is a payload satellite owned by SpaceX/Seattle (US) in LEO that was launched on Sun, 18 Oct 2020 UTC via an FALCON 9 launch vehicle from the Air Force Eastern Test Range (AFETR). Payloads include a variety of satellites, spacecraft, and rockets equipped with specific instruments for various scientific and technological missions. These include communications satellites like Starlink; space stations such as the ISS; scientific satellites like the Hubble; Earth observation satellites from companies like Planet Labs, Umbra, and HawkEye 360; GPS; miniature CubeSats for education and research; and military/defense satellites.

Loading next visibility...
STARLINK-1788 details
Identifier
46689, 2020-073V
Orbit
LEO
Last TLE update15 hours ago
Origin
Flag of USSpaceX/Seattle (US)
ManufacturerSpaceX/Seattle
MissionOperational Commercial Communications
Bus & MotorSTARLINK, Unknown motor
Mass260 kg wet, ~248 kg dry
Launch date (UTC)
2020-10-18 (4 years ago)
Launch vehicle
FALCON 9
Launch site
Air Force Eastern Test Range (AFETR)
Object type
Payload
Rocket body
Debris
Shape & HBRBox + 1 Pan, 8.86 m
Radar Cross Section13.562 m², Large (>1 m²)

Expand to show TLE details & history

TLE from 15 hours ago
0 STARLINK-1788
1 46689U 20073V   24339.49800419  .00001157  00000-0  96548-4 0  9991
2 46689  53.0533 163.1526 0001286  91.6120 268.5016 15.06402963228796
Epoch: 2024-12-04T11:57Z
Definitive object data (Epoch: 2024-12-04T11:57:07.562Z)
Latitude-0.00002°
Longitude-89.92122°
Altitude548.105 km
Speed7.589 km/s
True Right ascension10h 52m 36s
True Declination0° 00' 00"
Sunlit
Object was in daylight at TLE epoch
Visualization TLE readout
Latitude14.26217°
Longitude76.30298°
Altitude547.017 km
Speed7.591 km/s
Apparent Right ascension18h 50m 09s
Apparent Declination-26° 36' 31"
Sunlit
Object is in daylight
Visualization observer readout
Local Sidereal Time00:57:07
Azimuth249.952° W
Elevation-17.951°
Doppler factor1
Orbital elements
Apogee altitude548.364 km
Perigee altitude546.583 km
Semi-major axis6,925.61 km
Eccentricity0.0001286
Inclination53.0533°
RAAN163.1526°
Arg. of periapsis91.612°
True anomaly268.48687°
Mean anomaly268.5016°
Eccentric anomaly268.49423°
Mean motion3.76579 °/min
BSTAR0.000096548
Orbital period95.6 mins
Loading maneuver chart data...
Loading historical data...
Loading historical data...
Loading historical data...
Loading historical data...
Loading historical data...
Loading historical data...
Loading historical data...

STARLINK-1788 Visibility forecast

Observer location: undefined°, undefined

Span
Click to sort rows by Start time (UTC) header in descending order
Start Az.
Max El. time (UTC)
Max El. Az.
Max El.
End time (UTC)
End Az.
6 mins2024-12-05 15:12:57.030Z235.215° WSW2024-12-05 15:15:57.030Z8.137° NNE43.94°2024-12-05 15:18:57.030Z47.338° ENE
4 mins2024-12-05 16:53:57.030Z306.666° NW2024-12-05 16:55:57.030Z343.947° N18.673°2024-12-05 16:57:57.030Z18.504° NNE
4 mins2024-12-05 20:15:57.030Z354.195° N2024-12-05 20:16:57.030Z14.318° NNE20.565°2024-12-05 20:19:57.030Z69.297° E
6 mins2024-12-05 21:54:57.030Z306.127° NW2024-12-05 21:56:57.030Z278.148° WNW43.853°2024-12-05 22:00:57.030Z134.896° SE
|